Weather History for Grove, OK

Change the Weather History Date:

Tuesday, December 11, 2012

  Actual Average (KSLG) Record (KSLG)
Temperature  
Mean Temperature 34 °F -  
Max Temperature 50 °F 47 °F 68 °F (1996)
Min Temperature 17 °F 30 °F 10 °F (2000)
Degree Days  
Heating Degree Days 32    
Moisture  
Dew Point 20 °F    
Average Humidity 67    
Maximum Humidity 100    
Minimum Humidity 28    
Precipitation  
Precipitation 0.00 in - - ()
Sea Level Pressure  
Sea Level Pressure 30.15 in    
Wind  
Wind Speed 2 mph (SW)    
Max Wind Speed 10 mph    
Max Gust Speed 16 mph    
Visibility 10 miles    
Events      
Averages and records for this station are not official NWS values.
T = Trace of Precipitation, MM = Missing Value Source: NWS Daily Summary

Daily Weather History Graph

Daily Weather History Graph

Search for Another Location

Airport:

Trip Planner

Search our weather history database for the weather conditions in past years. The results will help you decide how hot, cold, wet, or windy it might be!

Date:

Astronomy

Dec. 11, 2012 Rise Set
Actual Time 7:21 AM CST 5:03 PM CST
Civil Twilight 6:52 AM CST 5:32 PM CST
Nautical Twilight 6:20 AM CST 6:04 PM CST
Astronomical Twilight 5:48 AM CST 6:36 PM CST
Moon 5:18 AM CST (12/11) 3:42 PM CST (12/11)
Length of Visible Light 10h 39m
Length of Day
9h 42m
Waning Crescent, 4% of the Moon is Illuminated
Dec 11
Waning Crescent
Dec 13
New
Dec 19
First Quarter
Dec 28
Full
Jan 4
Last Quarter

Hourly Weather History & Observations

Time (CST) Temp. Windchill Dew Point Humidity Pressure Visibility Wind Dir Wind Speed Gust Speed Precip Events Conditions
12:35 AM 21.2 °F - 21.2 °F 100% 30.12 in 10.0 mi Calm Calm - N/A   Clear
12:55 AM 21.2 °F - 19.4 °F 93% 30.11 in 10.0 mi Calm Calm - N/A   Clear
1:15 AM 21.2 °F 16.4 °F 19.4 °F 93% 30.11 in 10.0 mi SE 3.5 mph - N/A   Clear
1:35 AM 21.2 °F - 19.4 °F 93% 30.11 in 10.0 mi Calm Calm - N/A   Clear
1:55 AM 21.2 °F - 19.4 °F 93% 30.11 in 10.0 mi Calm Calm - N/A   Clear
2:15 AM 21.2 °F - 21.2 °F 100% 30.11 in 10.0 mi Calm Calm - N/A   Clear
2:35 AM 21.2 °F - 21.2 °F 100% 30.12 in 10.0 mi Calm Calm - N/A   Clear
2:55 AM 19.4 °F - 19.4 °F 100% 30.12 in 10.0 mi Calm Calm - N/A   Clear
3:15 AM 19.4 °F - 19.4 °F 100% 30.12 in 10.0 mi Calm Calm - N/A   Clear
3:35 AM 19.4 °F - 19.4 °F 100% 30.12 in 10.0 mi Calm Calm - N/A   Clear
3:55 AM 19.4 °F - 19.4 °F 100% 30.11 in 10.0 mi Calm Calm - N/A   Clear
4:15 AM 19.4 °F 12.8 °F 19.4 °F 100% 30.11 in 10.0 mi East 4.6 mph - N/A   Clear
4:35 AM 19.4 °F - 17.6 °F 93% 30.11 in 10.0 mi Calm Calm - N/A   Clear
4:55 AM 19.4 °F - 17.6 °F 93% 30.11 in 10.0 mi Calm Calm - N/A   Clear
5:15 AM 19.4 °F 14.3 °F 17.6 °F 93% 30.11 in 10.0 mi ESE 3.5 mph - N/A   Clear
5:35 AM 19.4 °F - 17.6 °F 93% 30.11 in 10.0 mi Calm Calm - N/A   Clear
5:55 AM 19.4 °F - 17.6 °F 93% 30.11 in 10.0 mi Calm Calm - N/A   Clear
6:15 AM 17.6 °F - 17.6 °F 100% 30.12 in 10.0 mi Calm Calm - N/A   Clear
6:35 AM 19.4 °F - 17.6 °F 93% 30.12 in 10.0 mi Calm Calm - N/A   Clear
6:55 AM 17.6 °F - 17.6 °F 100% 30.13 in 10.0 mi Calm Calm - N/A   Clear
7:15 AM 17.6 °F - 17.6 °F 100% 30.13 in 10.0 mi Calm Calm - N/A   Clear
7:35 AM 19.4 °F 14.3 °F 17.6 °F 93% 30.15 in 10.0 mi ESE 3.5 mph - N/A   Clear
7:55 AM 19.4 °F - 19.4 °F 100% 30.15 in 10.0 mi Calm Calm - N/A   Clear
8:15 AM 21.2 °F - 19.4 °F 93% 30.15 in 10.0 mi Calm Calm - N/A   Clear
8:35 AM 26.6 °F - 21.2 °F 80% 30.15 in 10.0 mi Calm Calm - N/A   Clear
8:55 AM 28.4 °F - 21.2 °F 74% 30.15 in 10.0 mi Calm Calm - N/A   Clear
9:15 AM 30.2 °F 26.7 °F 23.0 °F 75% 30.16 in 10.0 mi SE 3.5 mph - N/A   Clear
9:55 AM 33.8 °F - 23.0 °F 65% 30.17 in 10.0 mi Calm Calm - N/A   Clear
10:15 AM 35.6 °F - 23.0 °F 60% 30.18 in 10.0 mi Calm Calm - N/A   Clear
10:35 AM 37.4 °F 33.8 °F 21.2 °F 52% 30.17 in 10.0 mi SSW 4.6 mph - N/A   Clear
10:55 AM 39.2 °F 35.9 °F 21.2 °F 49% 30.17 in 10.0 mi SSW 4.6 mph - N/A   Clear
11:15 AM 41.0 °F 36.4 °F 19.4 °F 42% 30.17 in 10.0 mi WSW 6.9 mph - N/A   Clear
11:35 AM 42.8 °F 37.0 °F 19.4 °F 39% 30.17 in 10.0 mi SW 10.4 mph - N/A   Clear
11:55 AM 42.8 °F 38.6 °F 19.4 °F 39% 30.16 in 10.0 mi SSW 6.9 mph - N/A   Clear
12:15 PM 42.8 °F 38.0 °F 21.2 °F 42% 30.15 in 10.0 mi SW 8.1 mph - N/A   Clear
12:35 PM 44.6 °F 39.7 °F 19.4 °F 37% 30.14 in 10.0 mi SSW 9.2 mph - N/A   Clear
12:55 PM 46.4 °F 43.5 °F 19.4 °F 34% 30.13 in 10.0 mi WSW 5.8 mph - N/A   Clear
1:15 PM 46.4 °F 43.5 °F 19.4 °F 34% 30.12 in 10.0 mi WSW 5.8 mph - N/A   Clear
1:35 PM 48.2 °F - 21.2 °F 34% 30.12 in 10.0 mi WSW 6.9 mph - N/A   Clear
1:55 PM 48.2 °F - 19.4 °F 32% 30.11 in 10.0 mi SW 10.4 mph 16.1 mph N/A   Clear
2:15 PM 48.2 °F - 19.4 °F 32% 30.11 in 10.0 mi SW 9.2 mph 16.1 mph N/A   Clear
2:35 PM 50.0 °F - 19.4 °F 30% 30.11 in 10.0 mi SW 8.1 mph - N/A   Clear
2:55 PM 50.0 °F - 19.4 °F 30% 30.11 in 10.0 mi SW 9.2 mph - N/A   Clear
3:15 PM 50.0 °F - 17.6 °F 28% 30.11 in 10.0 mi WSW 8.1 mph - N/A   Clear
3:35 PM 48.2 °F - 17.6 °F 30% 30.12 in 10.0 mi SW 10.4 mph - N/A   Clear
3:55 PM 48.2 °F - 17.6 °F 30% 30.12 in 10.0 mi WSW 9.2 mph - N/A   Clear
4:15 PM 46.4 °F 41.9 °F 17.6 °F 32% 30.12 in 10.0 mi WSW 9.2 mph - N/A   Clear
4:35 PM 46.4 °F 43.5 °F 17.6 °F 32% 30.13 in 10.0 mi SW 5.8 mph - N/A   Clear
4:55 PM 44.6 °F 41.4 °F 17.6 °F 34% 30.13 in 10.0 mi SW 5.8 mph - N/A   Clear
5:15 PM 42.8 °F 40.1 °F 15.8 °F 34% 30.14 in 10.0 mi SW 4.6 mph - N/A   Clear
5:35 PM 37.4 °F - 17.6 °F 45% 30.14 in 10.0 mi Calm Calm - N/A   Clear
5:55 PM 41.0 °F - 17.6 °F 39% 30.15 in 10.0 mi Calm Calm - N/A   Clear
6:15 PM 41.0 °F - 17.6 °F 39% 30.15 in 10.0 mi Calm Calm - N/A   Clear
6:35 PM 37.4 °F - 17.6 °F 45% 30.15 in 10.0 mi Calm Calm - N/A   Clear
6:55 PM 39.2 °F - 17.6 °F 42% 30.16 in 10.0 mi Calm Calm - N/A   Clear
7:15 PM 33.8 °F - 19.4 °F 56% 30.16 in 10.0 mi Calm Calm - N/A   Clear
7:55 PM 32.0 °F - 19.4 °F 60% 30.18 in 10.0 mi Calm Calm - N/A   Clear
8:15 PM 33.8 °F - 17.6 °F 52% 30.19 in 10.0 mi Calm Calm - N/A   Clear
8:35 PM 32.0 °F - 23.0 °F 69% 30.19 in 10.0 mi Calm Calm - N/A   Clear
8:55 PM 30.2 °F - 23.0 °F 75% 30.19 in 10.0 mi Calm Calm - N/A   Clear
9:15 PM 30.2 °F - 21.2 °F 69% 30.19 in 10.0 mi Calm Calm - N/A   Clear
9:35 PM 30.2 °F - 21.2 °F 69% 30.20 in 10.0 mi Calm Calm - N/A   Clear
9:55 PM 28.4 °F - 23.0 °F 80% 30.20 in 10.0 mi Calm Calm - N/A   Clear
10:15 PM 28.4 °F - 23.0 °F 80% 30.20 in 10.0 mi Calm Calm - N/A   Clear
10:35 PM 28.4 °F - 23.0 °F 80% 30.21 in 10.0 mi Calm Calm - N/A   Clear
10:55 PM 28.4 °F - 23.0 °F 80% 30.22 in 10.0 mi Calm Calm - N/A   Clear
11:15 PM 28.4 °F - 23.0 °F 80% 30.22 in 10.0 mi Calm Calm - N/A   Clear
11:35 PM 26.6 °F - 23.0 °F 86% 30.23 in 10.0 mi Calm Calm - N/A   Clear
11:55 PM 28.4 °F - 24.8 °F 86% 30.24 in 10.0 mi Calm Calm - N/A   Clear